Aeroporto :
LOGIN :

Iscrizione | Disclaimer

   EN    FR    IT 

 










Sommario :    VFR   VFR Marginale   IFR   IFR Intensivo   IFR Molto Intensivo
Visibilità : 
Base nubi : 
>= 8 km
>= 3000ft
5 / 8 km
1000 / 3000 ft
1500m / 5 km
500 / 1000 ft
800 / 1500m
200 / 500 ft
< 800m
< 200 ft
Simboli :   Temporali  Nebbia  Neve Forte  Precipitazioni Forti  Vento > 20 kt
SIGMETs :   Varie  Temporali  Ghiacco  Turbolenza  Onda orograficha  Ceneri Vulcaniche






- Altitudine del aeroporto : 755 ft
- Codice IATA : RWN


UKLR - Rivne

ULTIMO METAR :
  • 281200Z 04006MPS 010V070 9999 FEW///CB 18/08 Q1018 NOSIG

METARs OBSOLETI :
  • 281100Z 03004MPS 260V070 9999 FEW///CB 19/09 Q1018 NOSIG
  • 281000Z 04005MPS 360V070 9999 FEW///CB 19/08 Q1019 NOSIG

TAF TAF UKLR
Valido dal 28 a 12 ore il 28 a 21 ore UTC


281113Z 2812/2821 03003MPS 9999 BKN015 SCT020CB
TEMPO 2812/2818 VRB10G18MPS 2100 -TSRAGR SQ BKN007 BKN013CB



MetMap, La meteo Aeronautica in un colpo d'occhio ! - Copyright ORBIFLY Dicembre 2007 - Disclaimer

ORBIFLY MET'MAP TEAM :

Programmazione e sviluppo : Alexandra Zaïnal
Concezione : Baudouin d'Aumeries
Aiuto per la programmazione : Marc-Olivier Méhu
Supporto tecnico e logistico : Manuel Goepfert
Aiuto per la traduzione : Arnaldo La Scala

Contatto : metmap@orbifly.com




FONTI E CREDITI :

   NOAA